Probability
0 0 0 0 0 0 0 0 0 0 0 0 0 0 0 0 0 0 0 0 0 0 0 0 0 0 0 0 0 0 0 0 0 0 0 0 0 0 0 0 0 0 0
0 0 0 0 0 0 0 0 0 0 0 0 0 0 0 0 0 0 0 0 0 0 0 0 0 0 0 0 0 0 0 0 0 0 0 0 0 0 0 0 0 0 0
0 0 0 0 0 0 0 0 0 0 0 0 0 0 0 0 0 0 0 0 0 0 0 0 0 0 0 0 0 0 0 0 0 0 0 0 0 0 0 0 0 0 0
0 0 0 0 0 0 0 0 0 0 0 0 0 0 0 0 0 0 0 0 0 0 0 0 0 0 0 0 0 0 0 0 0 0 0 0 0 0 0 0 0 0 0
0 0 0 0 0 0 0 0 0 0 0 0 0 0 0 0 0 0 0 0 0 0 0 0 0 0 0 0 0 0 0 0 0 0 0 0 0 0 0 0 0 0 0
0 0 0 0 0 0 0 0 0 0 0 0 0 0 0 0 0 0 0 0 0 0 0 0 0 0 0 0 0 0 0 0 0 0 0 0 0 0 0 0 0 0 0
0 0 0 0 0 0 0 0 0 0 0 0 0 0 0 0 0 0 0 0 0 0 0 0 0 0 0 0 0 0 0 0 0 0 0 0 0 0 0 0 0 0 0
0 0 0 0 0 0 0 0 0 0 0 0 0 0 0 0 0 0 0 0 0 0 0 0 0 0 0 0 0 0 0 0 0 0 0 0 0 0 0 0 0 0 0
0 0 0 0 0 0 0 0 0 0 0 0 0 0 0 0 0 0 0 0 0 0 0 0 0 0 0 0 0 0 0 0 0 0 0 0 0 0 0 0 0 0 0
0 0 0 0 0 0 0 0 0 0 0 0 0 0 0 0 0 0 0 0 0 0 0 0 0 0 0 0 0 0 0 0 0 0 0 0 0 0 0 0 0 0 0
0 0 0 0 0 0 0 0 0 0 0 0 0 0 0 0 0 0 0 0 0 0 0 0 0 0 0 0 0 0 0 0 0 0 0 0 0 0 0 0 0 0 0
0 0 0 0 0 0 0 0 0 0 0 0 0 0 0 0 0 0 0 0 0 0 0 0 0 0 0 0 0 0 0 0 0 0 0 0 0 0 0 0 0 0 0
0 0 0 0 0 0 0 0 0 0 0 0 0 0 0 0 0 0 0 0 0 0 0 0 0 0 0 0 0 0 0 0 0 0 0 0 0 0 0 0 0 0 0
0 0 0 0 0 0 0 0 0 0 0 0 0 0 0 0 0 0 0 0 0 0 0 0 0 0 0 0 0 0 0 0 0 0 0 0 0 0 0 0 0 0 0
0 0 0 0 0 0 0 0 0 0 0 0 0 0 0 0 0 0 0 0 0 0 0 0 0 0 0 0 0 0 0 0 0 0 0 0 0 0 0 0 0 0 0
0 0 0 0 0 0 0 0 0 0 0 0 0 0 0 0 0 0 0 0 0 0 0 0 0 0 0 0 0 0 0 0 0 0 0 0 0 0 0 0 0 0 0
0 0 0 0 0 0 0 0 0 0 0 0 0 0 0 0 0 0 0 0 0 0 0 0 0 0 0 0 0 0 0 0 0 0 0 0 0 0 0 0 0 0 0
0 0 0 0 0 0 0 0 0 0 0 0 0 0 0 0 0 0 0 0 0 0 0 0 0 0 0 0 0 0 0 0 0 0 0 0 0 0 0 0 0 0 0
0 0 0 0 0 0 0 0 0 0 0 0 0 0 0 0 0 0 0 0 0 0 0 0 0 0 0 0 0 0 0 0 0 0 0 0 0 0 0 0 0 0 0
0 0 0 0 0 0 0 0 0 0 0 0 0 0 0 0 0 0 0 0 0 0 0 0 0 0 0 0 0 0 0 0 0 0 0 0 0 0 0 0 0 0 0
0 0 0 0 0 0 0 0 0 0 0 0 0 0 0 0 0 0 0 0 0 0 0 0 0 0 0 0 0 0 0 0 0 0 0 0 0 0 0 0 0 0 0
0 0 0 0 0 0 0 0 0 0 0 0 0 0 0 0 0 0 0 0 0 0 0 0 0 0 0 0 0 0 0 0 0 0 0 0 0 0 0 0 0 0 0
0 0 0 0 0 0 0 0 0 0 0 0 0 0 0 0 0 0 0 0 0 0 0 0 0 0 0 0 0 0 0 0 0 0 0 0 0 0 0 0 0 0 0
0 0 0 0 0 0 0 0 0 0 0 0 0 0 0 0 0 0 0 0 0 0 0 0 0 0 0 0 0 0 0 0 0 0 0 0 0 0 0 0 0 0 0
0 0 0 0 0 0 0 0 0 0 0 0 0 0 0 0 0 0 0 0 0 0 0 0 0 0 0 0 0 0 0 0 0 0 0 0 0 0 0 0 0 0 0
0 0 0 0 0 0 0 0 0 0 0 0 0 0 0 0 0 0 0 0 0 0 0 0 0 0 0 0 0 0 0 0 0 0 0 0 0 0 0 0 0 0 0
Height
5604 5603 5601 5599 5597 5595 5594 5592 5590 5587 5585 5583 5581 5579 5578 5576 5574 5573 5571 5570 5568 5566 5564 5563 5562 5562 5562 5562 5562 5563 5564 5566 5569 5574 5575 5576 5577 5580 5582 5584 5587 5590 5593
5591 5590 5588 5587 5585 5583 5580 5578 5576 5574 5572 5569 5567 5565 5564 5562 5560 5559 5557 5555 5553 5551 5550 5548 5547 5547 5547 5547 5548 5548 5549 5550 5552 5556 5559 5560 5561 5563 5565 5568 5571 5574 5578
5579 5577 5575 5573 5571 5569 5567 5565 5563 5560 5558 5556 5554 5552 5550 5548 5546 5544 5542 5541 5539 5537 5535 5534 5533 5532 5532 5532 5533 5533 5534 5535 5536 5539 5542 5544 5546 5547 5549 5552 5556 5559 5563
5566 5564 5562 5560 5558 5556 5554 5551 5549 5546 5544 5542 5540 5537 5535 5533 5531 5529 5527 5526 5524 5522 5521 5519 5518 5517 5517 5517 5518 5519 5519 5520 5521 5523 5526 5528 5530 5532 5534 5537 5541 5544 5549
5553 5551 5549 5547 5545 5542 5540 5538 5535 5533 5530 5528 5526 5523 5521 5519 5517 5514 5512 5511 5509 5508 5506 5505 5504 5503 5503 5503 5503 5504 5504 5505 5506 5508 5511 5513 5515 5517 5520 5523 5526 5531 5535
5541 5538 5536 5534 5531 5529 5526 5524 5521 5519 5516 5514 5512 5509 5507 5504 5502 5499 5497 5496 5494 5493 5491 5490 5489 5488 5488 5488 5488 5489 5489 5490 5492 5494 5496 5499 5502 5504 5507 5510 5513 5518 5523
5528 5526 5523 5521 5518 5515 5513 5510 5508 5505 5502 5500 5497 5495 5493 5490 5487 5485 5482 5480 5479 5478 5476 5476 5475 5474 5474 5474 5474 5475 5476 5477 5478 5480 5482 5485 5488 5491 5494 5497 5500 5504 5510
5515 5513 5510 5507 5505 5502 5499 5496 5494 5491 5488 5486 5483 5481 5479 5476 5473 5471 5468 5467 5465 5463 5462 5461 5460 5460 5459 5460 5461 5462 5463 5464 5465 5467 5470 5472 5474 5477 5480 5484 5487 5492 5497
5502 5500 5497 5494 5491 5488 5486 5483 5480 5477 5475 5472 5470 5468 5465 5463 5460 5457 5455 5453 5451 5450 5448 5447 5446 5446 5446 5446 5447 5449 5450 5451 5452 5454 5456 5459 5462 5465 5468 5471 5475 5479 5484
5490 5487 5484 5481 5478 5475 5472 5470 5467 5464 5461 5459 5457 5454 5452 5450 5447 5444 5441 5440 5438 5437 5435 5434 5433 5432 5432 5432 5434 5435 5437 5439 5440 5442 5444 5446 5449 5452 5456 5459 5463 5467 5471
5477 5475 5472 5468 5465 5463 5460 5457 5454 5451 5449 5446 5444 5442 5439 5436 5434 5431 5428 5426 5425 5423 5422 5421 5420 5420 5420 5420 5421 5423 5424 5426 5428 5430 5432 5435 5438 5441 5444 5447 5451 5454 5459
5466 5463 5460 5457 5454 5451 5448 5445 5442 5439 5436 5433 5431 5428 5426 5423 5420 5418 5415 5413 5411 5410 5410 5409 5408 5407 5408 5408 5409 5411 5412 5413 5415 5418 5420 5423 5426 5429 5432 5436 5439 5442 5446
5454 5451 5448 5445 5442 5439 5436 5433 5430 5427 5423 5421 5418 5416 5413 5410 5408 5405 5403 5401 5399 5398 5397 5396 5395 5395 5395 5396 5397 5398 5400 5401 5404 5406 5409 5412 5414 5417 5420 5424 5427 5431 5435
5442 5439 5436 5433 5430 5427 5424 5421 5418 5415 5411 5408 5406 5403 5401 5399 5396 5394 5392 5390 5388 5387 5386 5385 5384 5384 5384 5384 5385 5386 5388 5390 5392 5394 5397 5399 5402 5405 5408 5412 5416 5420 5424
5431 5428 5425 5422 5419 5416 5412 5409 5406 5403 5400 5397 5394 5392 5390 5388 5385 5383 5381 5380 5378 5377 5376 5375 5374 5374 5374 5374 5375 5375 5377 5379 5380 5382 5385 5387 5390 5394 5397 5401 5404 5408 5412
5420 5417 5414 5411 5408 5405 5401 5398 5394 5392 5389 5385 5383 5381 5379 5377 5374 5372 5371 5369 5368 5367 5365 5365 5364 5364 5364 5364 5365 5366 5367 5368 5370 5372 5374 5377 5380 5383 5386 5390 5393 5397 5401
5409 5406 5403 5400 5397 5394 5391 5388 5385 5382 5378 5375 5372 5370 5368 5366 5364 5362 5361 5359 5358 5357 5356 5355 5354 5354 5354 5355 5355 5356 5357 5359 5360 5362 5365 5367 5369 5372 5375 5379 5383 5386 5390
5398 5395 5392 5389 5386 5383 5380 5377 5374 5371 5369 5365 5363 5360 5358 5356 5354 5353 5351 5350 5349 5347 5346 5345 5345 5344 5344 5345 5346 5346 5347 5349 5350 5353 5355 5357 5359 5362 5365 5368 5372 5376 5379
5388 5385 5382 5379 5376 5373 5370 5367 5364 5361 5359 5356 5354 5351 5349 5347 5345 5343 5341 5340 5339 5338 5337 5336 5335 5335 5335 5336 5336 5337 5338 5339 5341 5343 5345 5347 5350 5352 5355 5358 5362 5365 5369
5378 5375 5372 5369 5366 5363 5360 5358 5355 5352 5349 5347 5345 5342 5340 5338 5336 5334 5332 5330 5329 5328 5327 5326 5326 5326 5326 5326 5327 5328 5329 5330 5332 5334 5336 5338 5341 5343 5346 5349 5352 5356 5359
5369 5366 5363 5360 5357 5354 5351 5348 5346 5343 5341 5338 5336 5333 5331 5329 5327 5325 5323 5321 5319 5318 5317 5317 5316 5316 5317 5317 5318 5319 5320 5321 5323 5325 5327 5329 5332 5334 5337 5340 5343 5346 5349
5360 5357 5354 5351 5348 5345 5342 5339 5337 5334 5332 5329 5327 5324 5322 5320 5318 5316 5313 5312 5310 5309 5308 5307 5307 5307 5308 5308 5309 5310 5311 5313 5314 5316 5318 5321 5323 5326 5328 5331 5334 5337 5340
5350 5348 5345 5342 5339 5336 5333 5331 5328 5326 5323 5321 5318 5316 5313 5311 5309 5307 5305 5303 5301 5300 5299 5299 5299 5299 5299 5300 5300 5302 5303 5304 5306 5308 5310 5312 5315 5317 5320 5322 5325 5328 5331
5341 5339 5336 5333 5331 5328 5325 5323 5320 5317 5315 5312 5310 5307 5305 5302 5300 5298 5296 5294 5292 5291 5291 5290 5290 5290 5291 5291 5292 5293 5294 5296 5297 5299 5302 5304 5307 5309 5312 5314 5317 5319 5322
5333 5330 5328 5325 5323 5320 5318 5315 5312 5310 5307 5304 5302 5299 5297 5294 5292 5289 5287 5286 5284 5283 5282 5282 5282 5282 5282 5283 5284 5285 5286 5288 5289 5291 5293 5296 5298 5301 5303 5306 5308 5311 5314
5324 5322 5319 5317 5315 5312 5310 5308 5305 5302 5300 5297 5294 5291 5289 5286 5284 5282 5280 5278 5276 5275 5275 5274 5274 5274 5274 5275 5276 5277 5278 5280 5281 5283 5285 5287 5290 5292 5295 5297 5300 5303 5305
Wind_Speed
45 46 47 47 48 49 49 49 49 50 50 50 50 50 50 49 49 50 50 51 51 51 52 52 52 52 52 52 52 53 53 53 53 53 54 54 54 54 53 53 54 54 53
45 46 47 48 48 48 48 48 49 49 49 49 50 50 49 50 50 51 51 51 50 50 50 51 51 51 51 51 51 52 52 53 53 52 53 53 53 53 52 52 53 54 54
45 46 47 48 48 48 48 48 48 48 48 48 49 50 50 50 51 51 51 51 51 50 50 50 50 50 49 50 51 51 51 52 52 51 51 52 52 52 52 51 52 53 53
45 46 47 47 48 48 48 48 48 48 48 49 49 50 50 51 51 52 52 52 51 51 50 50 50 50 49 49 50 50 51 51 51 51 50 50 50 50 50 51 50 51 51
45 46 46 47 47 48 48 48 48 49 49 49 49 49 50 51 51 51 51 51 51 50 50 50 50 50 49 48 49 50 50 50 49 49 48 48 48 47 47 48 48 48 48
46 46 47 47 47 47 48 48 48 49 48 48 49 49 49 50 50 50 50 50 50 50 49 48 49 48 48 48 48 48 47 47 46 46 46 46 46 46 45 46 47 47 47
46 47 47 47 47 47 48 48 48 48 48 47 48 48 47 48 48 48 48 48 49 48 47 47 47 47 47 46 46 46 45 45 45 44 45 44 45 45 45 45 45 45 45
46 47 47 47 47 47 47 47 47 47 46 46 46 46 46 46 46 46 47 47 46 46 46 46 46 46 46 45 45 45 45 45 44 43 43 43 43 43 44 45 44 44 45
45 46 46 46 46 46 46 46 46 46 46 45 45 44 45 45 45 45 46 46 45 45 45 44 43 44 44 44 43 43 44 43 43 43 43 42 42 43 44 44 43 43 43
44 45 44 44 44 45 45 45 45 45 45 44 44 44 45 44 45 45 45 45 44 43 43 42 42 42 42 42 42 42 42 42 41 41 42 42 42 43 43 43 43 42 43
43 43 43 43 43 43 43 43 43 43 44 44 44 44 44 44 44 45 45 45 43 41 41 40 41 40 40 40 41 40 40 40 40 40 40 40 41 41 41 42 42 42 43
42 42 42 42 42 42 42 42 42 42 42 43 43 43 43 43 43 43 43 42 41 40 39 39 39 39 39 40 40 40 39 39 39 39 40 40 40 41 40 41 41 41 42
41 41 40 40 40 40 41 41 41 41 41 41 42 42 41 40 40 40 40 40 39 38 37 37 37 38 38 38 39 39 39 38 38 38 39 39 39 40 40 41 41 40 41
39 39 39 39 40 40 40 41 41 40 40 40 40 39 39 38 38 37 37 36 36 35 35 34 34 35 35 36 36 37 37 37 37 38 38 38 38 39 40 40 40 39 40
38 38 38 38 39 40 40 40 39 39 38 38 38 37 37 36 36 36 35 35 35 35 34 33 32 32 32 33 33 34 34 35 35 36 37 37 38 38 39 39 40 40 39
37 38 38 38 38 38 37 37 37 37 37 36 36 36 35 35 35 34 34 33 33 33 33 31 31 30 31 31 31 31 32 33 34 34 34 35 36 37 37 38 39 39 39
37 37 37 37 37 36 36 35 35 35 36 36 35 34 34 33 32 32 32 31 31 31 31 31 30 30 30 30 30 30 30 32 33 33 33 33 34 35 35 36 37 38 39
36 36 36 36 36 35 35 34 34 34 34 33 33 33 32 32 31 31 31 31 31 31 31 30 30 30 30 30 29 29 29 30 31 32 32 32 32 33 34 34 36 36 37
34 34 34 34 34 33 33 33 33 32 32 31 31 30 30 30 31 31 31 31 30 30 30 29 29 29 29 29 29 29 29 29 30 30 30 30 30 31 32 32 34 35 36
32 32 32 32 32 32 32 32 31 31 30 30 29 29 29 29 29 30 30 30 30 30 29 29 29 28 28 28 28 28 28 28 29 29 29 29 29 30 30 31 32 33 33
31 31 31 31 31 31 31 31 30 30 30 29 28 28 28 28 29 29 29 29 29 29 28 28 27 27 27 27 27 27 27 27 28 28 28 28 28 28 29 30 31 32 32
31 31 31 31 31 30 30 30 29 29 29 28 28 28 28 28 28 28 28 28 27 27 26 26 26 26 26 26 26 26 26 26 27 27 28 28 27 27 28 28 29 31 31
30 30 30 30 29 29 28 28 28 28 28 28 27 27 27 28 28 27 27 26 25 25 25 24 24 25 25 25 25 25 26 26 26 27 27 28 27 27 27 28 28 29 30
30 30 29 28 27 27 27 27 27 27 27 27 27 27 27 27 27 27 26 25 25 25 24 24 24 24 24 24 24 24 25 25 25 26 27 27 27 27 27 27 27 28 29
29 28 28 27 26 26 25 25 25 25 26 26 26 26 26 26 26 25 25 24 24 23 23 23 23 23 23 23 24 24 24 24 25 25 26 27 27 27 27 27 27 27 27
27 26 26 25 25 25 25 25 25 25 25 25 25 25 25 25 24 24 23 22 22 22 21 21 22 22 22 22 23 24 24 24 24 24 25 26 26 27 27 27 27 27 28
Wind_Direction
278 279 280 281 282 283 282 282 283 282 282 281 280 280 280 280 279 278 278 279 279 278 278 276 274 272 271 269 268 268 267 265 263 262 262 262 261 259 258 257 254 253 251
279 280 280 281 282 282 282 283 283 283 283 282 281 281 280 280 280 280 279 279 279 279 278 276 274 272 271 269 268 268 268 266 265 264 262 261 261 260 257 256 254 252 250
280 281 281 282 282 282 283 283 283 283 283 283 282 281 281 281 281 281 281 281 280 279 278 276 274 272 271 269 268 268 268 267 266 265 264 261 260 259 257 255 253 251 249
282 282 282 282 282 282 283 283 283 283 283 283 282 281 281 281 281 281 281 281 281 279 278 276 275 273 270 269 268 269 268 267 266 265 264 261 259 259 257 254 251 249 247
283 283 283 282 282 282 283 283 283 283 283 283 282 282 282 282 282 282 282 281 280 279 277 276 274 273 270 270 269 269 268 267 266 264 262 260 258 257 255 253 250 248 248
284 283 283 282 283 283 283 283 283 284 284 283 283 283 283 283 283 283 282 281 280 279 277 276 274 273 271 270 269 268 267 266 265 263 261 260 257 255 253 251 249 250 249
284 284 284 285 284 284 284 284 284 284 284 284 283 283 282 282 283 283 283 283 281 279 277 275 273 271 270 269 267 266 265 266 265 263 261 259 256 253 251 249 249 250 248
286 286 286 286 286 286 286 286 285 285 284 284 283 282 283 283 283 284 284 284 282 280 278 276 273 270 269 267 265 264 264 264 263 261 260 258 254 251 251 249 249 247 246
286 287 287 287 287 287 287 287 285 285 284 284 283 283 284 284 284 284 283 284 283 281 279 277 274 271 269 267 265 264 262 262 261 260 259 256 252 251 250 249 248 246 245
288 288 288 287 286 287 287 287 286 285 284 283 283 284 285 285 285 284 284 284 283 281 279 276 273 270 267 267 266 265 263 260 259 258 256 255 252 250 250 248 246 246 245
288 288 289 288 287 287 288 288 287 286 285 284 284 285 286 286 286 285 285 285 283 281 279 276 272 268 266 266 266 265 263 261 258 257 256 254 252 250 249 248 246 246 245
288 288 288 288 288 287 287 288 288 287 286 285 285 286 287 287 287 286 285 284 282 281 279 276 271 268 266 265 265 265 263 261 259 256 255 253 252 250 249 247 245 245 244
287 288 288 289 289 288 288 288 289 289 288 287 286 286 286 287 287 286 285 283 282 280 279 276 273 268 266 264 264 263 261 259 257 255 254 254 252 251 248 247 245 245 244
288 288 289 289 289 289 289 289 290 290 289 288 288 288 287 286 286 286 285 284 282 281 279 277 275 271 268 266 264 261 259 258 257 254 253 252 251 249 247 246 245 245 244
289 290 290 290 291 291 290 290 290 291 291 290 289 288 287 286 286 285 284 283 282 281 281 279 276 271 269 267 265 262 259 258 256 254 252 251 249 248 247 245 245 245 244
290 290 291 291 292 292 292 291 291 291 292 292 290 289 287 287 286 285 283 282 282 282 281 279 276 271 268 267 265 263 260 257 256 254 252 251 249 248 247 246 244 244 244
292 292 291 292 292 292 293 293 292 292 293 292 291 289 288 287 286 284 284 283 282 281 281 279 275 271 269 267 265 263 261 259 256 255 254 252 250 248 247 246 244 244 243
293 293 293 293 293 293 293 294 293 293 292 292 291 289 287 286 285 285 284 283 282 282 281 279 275 271 269 267 265 263 262 260 258 256 255 253 251 248 246 245 243 243 243
293 293 293 294 294 293 294 294 295 295 294 292 291 289 288 287 285 285 284 283 281 281 279 278 276 272 269 267 265 263 262 260 258 256 254 253 251 249 246 244 243 242 243
294 294 294 295 295 295 294 294 294 295 295 294 291 289 288 289 288 287 286 284 282 280 278 277 276 272 269 267 265 263 262 261 258 255 252 251 250 248 245 244 243 242 243
294 294 295 296 296 296 295 295 294 294 295 294 291 289 289 289 290 289 287 285 283 281 278 276 275 272 268 266 265 262 261 260 257 253 251 249 249 248 246 244 243 242 243
295 295 296 296 297 297 296 295 294 294 294 294 292 291 291 291 291 291 289 286 283 280 278 276 275 272 268 266 264 262 260 259 256 252 250 249 248 247 246 245 244 243 243
295 296 296 297 297 297 297 296 296 295 294 294 294 293 293 293 292 291 290 287 283 280 278 276 274 271 268 265 263 261 259 258 255 251 249 247 247 247 247 246 245 243 241
295 296 296 297 297 297 297 297 297 296 296 295 295 295 295 294 293 291 289 287 284 280 278 275 274 272 269 266 263 261 259 256 254 251 248 247 246 246 246 245 244 243 242
295 296 296 296 296 296 297 298 298 298 298 298 297 297 297 296 294 292 290 287 284 280 277 276 274 273 269 265 262 260 258 255 253 250 247 246 246 245 245 244 244 243 242
295 295 295 295 296 296 297 297 298 299 300 300 300 299 298 296 294 292 290 288 285 282 279 276 275 273 270 266 262 259 257 255 252 249 248 246 246 245 244 244 245 244 244